Wind_Speed
35 35 36 37 37 38 38 39 39 40 40 40 40 40 40 41 41 40 41 41 41 42 42 42 42 42 43 43 44 44 44 44 44 43 43 44 44 45 45 45 46 45 46
35 35 37 38 38 38 38 38 38 39 39 40 40 40 41 40 40 40 40 41 41 41 42 42 42 43 44 44 44 44 45 45 45 44 45 45 46 46 46 46 46 45 45
35 36 37 37 38 38 38 38 38 39 39 40 41 41 41 41 41 41 42 42 42 42 42 43 43 44 44 45 45 45 46 46 46 46 45 46 46 46 46 46 45 44 43
35 36 36 37 38 38 39 39 39 40 41 41 42 41 41 42 42 43 43 42 43 43 43 43 44 44 45 45 45 45 46 46 46 46 46 46 46 46 45 45 44 43 43
35 36 36 37 37 39 40 40 41 41 42 42 41 41 42 42 42 43 42 43 43 44 43 44 44 44 45 45 45 46 46 46 46 46 47 46 46 45 45 44 44 44 44
35 36 36 37 38 39 40 41 41 42 42 42 42 42 42 42 42 43 43 43 44 44 44 44 45 45 45 45 46 46 47 47 47 47 47 47 46 46 46 45 45 45 44
37 37 38 38 39 40 40 41 41 42 42 42 42 43 43 43 44 44 44 44 45 45 45 46 46 46 46 46 47 47 47 47 47 47 47 47 46 46 46 46 46 45 45
38 39 39 40 40 41 41 41 42 42 42 42 42 42 43 43 44 44 45 45 45 46 46 46 46 46 46 47 47 47 47 47 47 47 47 47 47 47 46 46 46 46 46
40 40 41 41 41 42 41 41 41 41 41 41 42 42 43 43 44 45 46 46 46 46 46 46 45 46 46 46 47 47 47 47 47 47 47 47 47 47 47 47 46 46 46
41 42 42 42 42 42 41 41 41 41 42 42 43 43 43 44 45 46 46 46 46 46 46 45 46 46 46 47 47 47 47 47 46 46 46 46 46 46 46 45 46 46 46
42 42 42 42 42 42 42 42 42 42 43 43 44 44 45 45 46 46 46 46 46 46 45 45 46 46 46 47 46 46 46 46 46 45 45 45 45 45 45 45 46 46 47
41 41 41 41 42 42 42 42 43 44 44 44 45 45 45 46 46 47 47 46 46 46 46 46 46 47 47 47 46 46 45 45 45 44 45 45 45 45 45 46 46 46 46
42 42 42 42 42 42 42 43 43 44 45 46 47 46 46 47 47 47 47 46 46 46 46 47 47 47 46 46 45 45 45 44 44 44 44 44 45 45 45 45 45 45 45
42 42 42 42 42 43 43 44 45 45 46 47 47 47 47 47 47 48 47 47 47 47 46 46 46 46 45 44 44 44 44 44 44 44 44 44 44 44 43 43 43 44 43
42 42 43 43 44 44 45 46 47 47 48 47 47 47 47 47 48 48 47 47 46 46 45 45 44 44 43 43 43 43 43 44 44 43 43 43 43 43 42 43 43 43 43
43 43 43 44 45 46 47 47 48 48 47 47 47 48 47 47 47 46 46 45 44 44 44 43 42 42 42 42 42 43 43 43 42 42 42 42 42 42 42 42 43 43 43
44 44 45 45 46 47 47 47 47 48 48 47 47 46 45 45 45 45 44 43 43 43 42 41 41 41 41 41 41 41 41 41 41 41 41 41 41 41 41 42 42 42 42
45 46 46 46 46 47 47 47 47 47 47 47 46 45 44 44 43 43 42 42 41 41 41 40 40 40 40 40 40 40 40 40 40 40 40 40 40 41 41 41 41 41 41
46 46 47 47 47 47 47 47 47 46 46 45 44 44 43 42 42 41 41 40 39 40 39 39 39 39 39 39 39 39 39 39 39 39 39 39 40 40 40 40 39 39 39
47 47 47 47 48 48 47 46 45 44 44 43 42 42 42 41 41 40 40 39 39 39 39 38 38 38 38 38 38 38 38 38 38 38 38 38 38 38 38 37 37 37 37
49 48 48 48 47 46 45 44 43 42 42 41 41 41 41 40 39 39 39 39 39 38 38 38 37 37 37 37 36 36 36 37 37 36 36 36 35 35 35 35 35 35 35
49 48 47 46 45 44 43 42 41 41 40 40 40 39 39 39 38 38 38 38 37 37 37 36 36 35 34 34 34 35 35 35 35 34 34 33 33 33 33 33 33 34 35
48 48 46 45 44 43 42 41 41 41 40 40 39 38 37 37 36 36 36 36 36 35 35 34 33 33 32 32 33 33 33 33 32 32 32 32 32 32 32 32 33 33 34
47 46 45 43 42 41 41 40 40 40 39 38 37 36 36 35 35 34 34 34 33 33 33 32 32 31 31 32 32 32 31 31 31 31 30 30 30 31 31 32 32 32 32
45 44 43 42 41 41 40 40 39 39 38 37 36 34 34 33 33 32 32 31 31 31 31 31 31 31 31 31 31 30 30 30 29 29 28 29 29 30 30 30 30 30 30
43 42 41 41 40 40 39 38 37 36 35 34 33 32 32 32 32 31 30 30 30 30 29 29 29 30 30 30 29 29 28 28 27 27 27 28 28 29 29 29 29 28 28
Wind_Direction
274 274 275 275 276 276 277 278 279 280 281 281 281 282 281 281 281 280 280 280 280 280 280 279 279 280 281 282 283 283 283 284 285 285 286 286 286 286 286 286 285 283 280
276 277 277 277 277 278 278 279 280 280 281 281 282 282 282 282 281 280 280 281 281 281 280 280 280 281 282 282 283 283 283 284 285 285 286 286 287 287 287 287 286 285 283
278 279 279 278 278 278 278 279 279 280 281 281 282 282 282 281 281 281 282 282 281 281 281 281 281 282 282 282 283 283 283 284 284 285 286 287 287 287 287 287 286 285 283
280 280 280 279 279 278 278 279 280 281 282 282 282 281 281 281 282 282 283 282 282 282 282 282 282 282 282 283 283 283 284 284 285 286 286 287 287 287 286 285 284 284 282
281 281 281 280 280 280 280 281 281 282 282 282 281 281 281 282 282 283 283 283 283 283 283 283 282 282 283 283 283 284 284 285 285 286 286 286 286 286 285 284 283 282 282
284 283 282 282 281 281 281 282 282 282 282 282 282 282 282 282 282 283 283 284 284 283 283 282 282 281 282 283 283 284 285 285 285 285 286 286 285 284 284 284 283 282 281
285 285 284 283 282 282 283 283 283 282 282 282 282 283 282 283 283 283 284 284 284 283 283 282 281 281 281 282 283 284 284 284 284 285 285 285 285 284 283 283 283 283 282
285 285 284 283 283 283 283 283 283 283 283 283 283 283 283 284 284 284 284 284 284 283 283 283 282 281 281 282 283 284 284 285 285 285 286 286 285 284 284 284 284 284 284
286 285 285 284 284 283 283 283 284 284 283 283 284 284 284 285 285 285 285 284 284 283 283 282 282 282 282 283 283 284 285 285 285 285 286 286 286 285 285 285 285 284 284
286 286 286 285 284 284 283 283 284 284 284 284 284 285 285 285 286 286 286 285 284 283 283 282 282 282 283 284 284 284 285 285 285 285 286 286 286 286 285 285 284 284 284
288 287 287 285 284 284 284 284 284 284 285 285 285 285 285 285 286 286 286 284 283 283 282 282 282 283 283 284 285 285 285 285 285 284 285 285 286 286 286 286 286 286 285
289 288 287 287 286 285 285 284 284 284 285 286 286 286 286 286 286 285 285 283 283 283 282 282 283 284 284 284 284 285 285 284 284 284 285 285 286 286 287 287 287 287 287
289 288 288 287 287 286 285 284 284 285 286 286 286 286 285 285 285 285 285 284 283 283 283 283 283 283 284 284 283 283 283 284 284 285 285 286 286 287 288 288 288 288 288
290 289 288 288 287 286 286 286 286 286 287 287 287 286 285 285 285 284 284 283 283 284 283 283 283 283 283 283 282 283 283 284 284 285 286 286 287 287 288 289 290 290 290
291 290 289 288 287 287 287 288 287 287 287 287 287 287 286 285 285 285 285 284 283 283 284 284 283 283 283 282 283 283 283 284 285 285 286 286 287 287 288 289 290 290 291
292 291 290 290 289 289 289 288 288 287 287 287 287 287 286 286 286 286 285 284 283 283 283 283 283 283 283 283 283 284 284 284 285 285 286 287 287 288 289 290 290 291 291
293 292 291 291 291 291 290 289 288 287 287 288 288 287 287 286 286 286 285 284 284 283 283 283 282 282 283 284 284 284 284 284 285 286 287 288 288 289 289 290 291 291 292
293 292 292 292 292 292 291 290 289 288 288 287 286 287 286 286 286 286 286 285 284 284 284 283 283 283 284 284 284 285 285 285 286 287 288 288 288 289 289 290 291 291 292
294 294 293 293 293 293 292 291 290 289 288 287 286 286 286 286 286 285 285 285 285 284 284 284 284 284 284 285 285 285 285 286 287 287 288 288 289 289 290 291 291 291 292
295 295 294 294 294 294 293 292 291 290 288 287 286 286 286 285 284 284 284 284 284 284 284 284 284 284 284 285 285 285 285 286 286 287 288 289 289 290 291 291 291 292 293
295 295 295 295 294 294 293 292 291 290 289 287 286 286 285 285 284 283 283 284 284 284 285 285 285 285 285 285 284 285 286 287 287 287 288 289 289 291 292 292 292 293 294
294 294 294 294 294 293 292 292 291 290 289 288 287 286 285 284 283 283 283 284 284 284 285 285 285 285 284 284 285 286 287 288 288 287 287 288 289 291 292 293 293 294 296
294 294 293 293 293 293 292 291 290 290 289 289 287 286 285 284 283 283 283 284 284 284 284 284 285 285 285 285 287 288 288 288 288 287 287 287 289 290 292 293 294 296 297
295 294 293 292 292 292 291 291 291 290 289 287 286 285 284 283 283 283 283 284 283 283 284 285 285 286 285 286 287 288 288 288 288 287 287 287 288 290 292 294 295 297 298
295 294 293 292 291 291 291 290 290 289 288 287 286 285 284 283 283 283 284 283 283 283 284 285 285 286 287 288 288 288 289 289 288 287 287 287 289 291 293 294 296 297 297
294 293 292 292 291 291 290 290 289 288 287 286 284 283 283 283 283 283 283 282 283 283 284 285 286 287 288 289 289 288 288 288 287 288 289 289 291 292 294 295 296 297 298
Height
5709 5708 5707 5706 5705 5703 5702 5700 5698 5697 5694 5692 5690 5688 5686 5684 5682 5680 5678 5677 5675 5673 5671 5669 5668 5666 5664 5661 5659 5656 5654 5651 5649 5646 5643 5641 5637 5634 5631 5628 5626 5623 5621
5700 5698 5697 5696 5695 5693 5692 5690 5688 5686 5684 5682 5680 5678 5675 5673 5671 5669 5667 5665 5663 5662 5660 5658 5656 5654 5652 5649 5647 5644 5641 5639 5636 5634 5631 5628 5625 5622 5619 5615 5612 5610 5607
5691 5689 5688 5686 5685 5683 5681 5680 5678 5676 5674 5671 5669 5667 5664 5662 5660 5658 5656 5654 5652 5650 5648 5646 5644 5642 5640 5637 5634 5632 5629 5626 5623 5621 5618 5615 5612 5609 5606 5602 5599 5596 5594
5682 5680 5678 5676 5675 5673 5671 5669 5667 5665 5663 5660 5658 5656 5653 5651 5649 5647 5644 5642 5640 5638 5636 5634 5632 5629 5627 5625 5622 5619 5616 5613 5610 5608 5605 5602 5599 5595 5593 5590 5587 5584 5581
5673 5670 5668 5666 5664 5662 5660 5658 5656 5654 5651 5649 5646 5644 5642 5640 5637 5635 5633 5631 5628 5626 5624 5622 5619 5617 5614 5612 5609 5606 5603 5600 5597 5595 5592 5588 5585 5582 5579 5576 5574 5571 5568
5663 5660 5658 5656 5654 5651 5649 5647 5645 5642 5640 5637 5635 5632 5630 5628 5625 5623 5621 5619 5616 5614 5612 5609 5607 5604 5601 5598 5596 5593 5590 5587 5584 5581 5578 5575 5572 5569 5566 5563 5560 5558 5555
5653 5650 5648 5645 5643 5640 5638 5636 5633 5630 5628 5626 5623 5620 5618 5616 5613 5611 5608 5606 5604 5601 5599 5596 5594 5591 5588 5585 5582 5579 5577 5573 5571 5568 5565 5562 5559 5555 5553 5550 5547 5544 5541
5642 5640 5637 5634 5632 5629 5627 5624 5621 5619 5616 5614 5611 5608 5606 5603 5601 5598 5596 5593 5591 5588 5585 5583 5580 5577 5574 5572 5569 5566 5563 5560 5557 5554 5551 5548 5545 5541 5539 5536 5533 5530 5528
5632 5629 5625 5623 5620 5617 5615 5612 5610 5607 5604 5602 5599 5596 5594 5591 5588 5585 5583 5580 5578 5575 5572 5569 5566 5564 5561 5558 5555 5553 5549 5546 5543 5540 5537 5534 5531 5528 5525 5522 5519 5517 5514
5620 5617 5614 5611 5608 5605 5603 5600 5597 5595 5592 5589 5587 5584 5581 5578 5575 5572 5569 5567 5564 5561 5558 5555 5553 5550 5547 5544 5541 5538 5535 5532 5529 5526 5523 5520 5517 5514 5511 5508 5505 5503 5500
5608 5605 5601 5598 5596 5593 5590 5588 5585 5582 5580 5577 5574 5571 5568 5565 5562 5559 5556 5553 5550 5548 5545 5542 5539 5536 5533 5530 5527 5524 5521 5518 5516 5513 5510 5507 5504 5501 5498 5495 5492 5489 5486
5596 5593 5589 5586 5583 5580 5578 5575 5572 5569 5567 5564 5561 5558 5555 5551 5548 5545 5542 5539 5536 5534 5531 5528 5525 5522 5519 5516 5513 5511 5508 5505 5502 5500 5497 5494 5490 5487 5484 5481 5478 5474 5471
5584 5581 5577 5574 5571 5568 5565 5562 5559 5556 5553 5550 5547 5545 5541 5538 5535 5531 5528 5525 5522 5520 5517 5514 5511 5508 5505 5503 5500 5497 5494 5492 5489 5487 5484 5481 5477 5474 5471 5468 5464 5461 5457
5572 5568 5565 5562 5558 5555 5552 5549 5546 5543 5539 5536 5533 5530 5528 5524 5521 5517 5514 5511 5508 5506 5503 5500 5497 5494 5492 5489 5487 5484 5481 5479 5476 5474 5471 5468 5464 5461 5458 5455 5451 5448 5444
5559 5556 5552 5549 5545 5542 5538 5535 5532 5529 5525 5522 5519 5516 5513 5510 5506 5503 5500 5497 5494 5492 5489 5487 5484 5481 5479 5476 5473 5471 5468 5466 5463 5461 5458 5455 5452 5449 5446 5442 5439 5435 5432
5547 5543 5539 5535 5532 5528 5525 5522 5518 5514 5511 5507 5504 5501 5498 5495 5492 5489 5486 5483 5480 5478 5475 5473 5471 5468 5466 5463 5461 5458 5456 5453 5451 5448 5445 5442 5440 5436 5433 5430 5426 5423 5419
5534 5530 5526 5522 5518 5514 5510 5507 5504 5501 5497 5493 5490 5487 5484 5481 5478 5475 5472 5470 5467 5465 5463 5460 5458 5456 5453 5451 5448 5446 5443 5441 5438 5436 5433 5430 5427 5424 5421 5418 5414 5410 5407
5520 5516 5512 5508 5504 5500 5496 5492 5488 5485 5483 5479 5476 5473 5470 5467 5465 5462 5459 5457 5455 5452 5450 5448 5445 5443 5441 5438 5436 5433 5431 5428 5426 5423 5421 5418 5415 5412 5409 5405 5402 5398 5395
5507 5502 5498 5494 5490 5485 5481 5477 5474 5471 5468 5465 5462 5459 5456 5454 5452 5449 5446 5444 5442 5440 5437 5435 5433 5431 5428 5426 5424 5421 5419 5417 5414 5411 5409 5406 5403 5400 5397 5393 5390 5387 5383
5493 5488 5484 5480 5476 5471 5467 5463 5460 5457 5454 5451 5449 5446 5444 5441 5439 5437 5434 5432 5430 5428 5425 5423 5421 5419 5416 5414 5412 5410 5407 5405 5402 5400 5397 5394 5391 5388 5385 5382 5379 5375 5372
5479 5475 5470 5466 5461 5457 5453 5450 5446 5443 5441 5438 5436 5433 5431 5429 5427 5425 5422 5420 5418 5415 5413 5411 5409 5407 5404 5402 5400 5398 5396 5393 5391 5388 5385 5383 5380 5377 5374 5371 5368 5365 5361
5464 5460 5456 5452 5448 5444 5440 5437 5433 5430 5428 5425 5423 5420 5418 5416 5414 5412 5410 5408 5406 5404 5402 5400 5397 5395 5393 5391 5389 5387 5385 5382 5380 5377 5374 5372 5370 5367 5364 5361 5358 5354 5351
5449 5445 5441 5437 5434 5430 5427 5424 5421 5418 5415 5412 5410 5408 5406 5404 5402 5400 5398 5396 5394 5392 5390 5388 5386 5384 5383 5381 5379 5376 5374 5371 5369 5367 5364 5362 5360 5357 5354 5351 5348 5344 5341
5434 5430 5427 5423 5420 5417 5414 5411 5408 5405 5402 5400 5398 5396 5394 5392 5390 5389 5387 5385 5383 5381 5380 5378 5376 5374 5372 5370 5368 5366 5363 5361 5359 5356 5354 5352 5350 5347 5345 5342 5338 5335 5331
5420 5416 5413 5410 5407 5404 5401 5398 5395 5392 5390 5388 5386 5384 5382 5381 5379 5378 5376 5374 5373 5371 5370 5368 5366 5364 5362 5360 5358 5356 5353 5351 5349 5347 5345 5343 5340 5338 5335 5332 5329 5325 5322
5406 5402 5399 5396 5393 5390 5387 5385 5382 5380 5378 5376 5374 5373 5371 5370 5368 5367 5366 5364 5363 5361 5360 5358 5357 5355 5353 5350 5348 5346 5344 5341 5339 5337 5335 5333 5331 5328 5325 5323 5320 5316 5313